PICO-02D024

operational
NORAD ID: 60569 Int'l Des: 2024-149 Owner: APOGEO Country: I
LEOCIRCULARRETROGRADESSO

Über PICO-02D024

Beschreibung wird geladen...

Live-Position

3D-Globus wird geladen...

Nächste Überflüge

Höhenverlauf

Altitude vs Time

uPlot chart will show altitude changes over time

Zweizeiliger Elementsatz

1 60569U 24149DF 25341.24757349 .00227291 00000-0 41791-2 0 9999
2 60569 97.6976 69.2520 0002810 286.2360 73.8580 15.48363627 72212
Epoch: 7. Dez. 2025 • Age: 15 hours

Aktueller Status

Höhe 424.1 km
Geschwindigkeit 7.66 km/s
Subsatellitenpunkt 14.97°N, 134.05°W
Startdatum 16. Aug. 2024
Alter 1.3 years
Typ other

Technische Details

Klassifizierung Payload
Masse 0.50 kg
Trockenmasse 0.50 kg
Gesamtmasse 0.50 kg
Länge 0.03 m
Durchmesser 0.10 m
Spannweite 0.10 m
Form Box
Hersteller APOGEO
Bus-Typ Cubesat 0.3U
Phasenstatus In Orbit
Besitzer/Staat APOGEO/I

Große Konstellationen

Loading constellations...